Cherry Point, NC

7:59 PM EDT on September 30, 2016 (GMT -0400)
Cherry Point Marine Corps Air Station

Weather History for KNKT - October, 2013

Change the Weather History Date:

Tuesday, October 1, 2013

  Actual Average Record
Temperature  
Mean Temperature 66 °F -  
Max Temperature 79 °F 76 °F 84 °F (2002)
Min Temperature 53 °F 58 °F 48 °F (2001)
Cooling Degree Days 1    
Growing Degree Days 16 (Base 50)    
Moisture  
Dew Point 55 °F    
Average Humidity 72    
Maximum Humidity 97    
Minimum Humidity 43    
Precipitation  
Precipitation 0.00 in - - ()
Sea Level Pressure  
Sea Level Pressure 30.08 in    
Wind  
Wind Speed 2 mph (NNW)    
Max Wind Speed 9 mph    
Max Gust Speed -    
Visibility 9 miles    
Events Fog    
Averages and records for this station are not official NWS values.
T = Trace of Precipitation, MM = Missing Value Source: NWS Daily Summary

Daily Weather History Graph

Daily Weather History Graph

Search for Another Location

Airport or City:

Trip Planner

Search our weather history database for the weather conditions in past years. The results will help you decide how hot, cold, wet, or windy it might be!

Date:

Astronomy

Oct. 01, 2013 Rise Set
Actual Time 7:02 AM EDT 6:51 PM EDT
Civil Twilight 6:37 AM EDT 7:16 PM EDT
Nautical Twilight 6:07 AM EDT 7:45 PM EDT
Astronomical Twilight 5:38 AM EDT 8:15 PM EDT
Moon 3:41 AM EDT (10/1) 4:48 PM EDT (10/1)
Length of Visible Light 12h 39m
Length of Day
11h 48m
Waning Crescent, 12% of the Moon is Illuminated
Oct 1
Waning Crescent
Oct 4
New
Oct 11
First Quarter
Oct 18
Full
Oct 26
Last Quarter

Hourly Weather History & Observations

Time (EDT) Temp. Dew Point Humidity Pressure Visibility Wind Dir Wind Speed Gust Speed Precip Events Conditions
12:54 AM 57.9 °F 54.0 °F 87% 30.06 in 10.0 mi Calm Calm - N/A   Clear
1:54 AM 57.0 °F 54.0 °F 89% 30.06 in 10.0 mi Calm Calm - N/A   Clear
2:54 AM 55.0 °F 52.0 °F 89% 30.05 in 5.0 mi Calm Calm - N/A   Clear
3:54 AM 54.0 °F 53.1 °F 97% 30.05 in 7.0 mi Calm Calm - N/A   Clear
4:54 AM 54.0 °F 51.1 °F 90% 30.05 in 10.0 mi NNW 3.5 mph - N/A   Clear
5:54 AM 53.1 °F 52.0 °F 96% 30.07 in 7.0 mi Calm Calm - N/A   Clear
6:54 AM 54.0 °F 52.0 °F 93% 30.09 in 7.0 mi Calm Calm - N/A Fog Shallow Fog
7:54 AM 55.9 °F 53.1 °F 90% 30.11 in 7.0 mi Calm Calm - N/A Fog Shallow Fog
8:54 AM 64.9 °F 60.1 °F 84% 30.12 in 10.0 mi Calm Calm - N/A   Clear
9:54 AM 71.1 °F 57.0 °F 61% 30.13 in 10.0 mi NE 4.6 mph - N/A   Clear
10:54 AM 73.9 °F 54.0 °F 50% 30.12 in 10.0 mi NNW 8.1 mph - N/A   Partly Cloudy
11:54 AM 75.9 °F 55.0 °F 48% 30.11 in 10.0 mi North 8.1 mph - N/A   Partly Cloudy
12:54 PM 75.0 °F 55.0 °F 50% 30.09 in 10.0 mi Variable 3.5 mph - N/A   Scattered Clouds
1:54 PM 79.0 °F 55.0 °F 44% 30.07 in 10.0 mi NNW 9.2 mph - N/A   Partly Cloudy
2:54 PM 78.1 °F 54.0 °F 43% 30.05 in 10.0 mi Variable 4.6 mph - N/A   Clear
3:54 PM 78.1 °F 55.0 °F 45% 30.04 in 10.0 mi Variable 3.5 mph - N/A   Clear
4:54 PM 79.0 °F 55.0 °F 44% 30.04 in 10.0 mi Variable 3.5 mph - N/A   Clear
5:54 PM 73.0 °F 59.0 °F 61% 30.05 in 10.0 mi South 6.9 mph - N/A   Partly Cloudy
6:54 PM 68.0 °F 55.9 °F 65% 30.06 in 10.0 mi South 5.8 mph - N/A   Partly Cloudy
7:54 PM 66.0 °F 55.9 °F 70% 30.08 in 10.0 mi South 3.5 mph - N/A   Clear
8:54 PM 63.0 °F 55.9 °F 78% 30.09 in 10.0 mi Calm Calm - N/A   Clear
9:54 PM 61.0 °F 55.9 °F 83% 30.10 in 10.0 mi Calm Calm - N/A   Clear
10:54 PM 61.0 °F 55.9 °F 83% 30.10 in 10.0 mi Calm Calm - N/A   Clear
11:54 PM 60.1 °F 55.0 °F 83% 30.10 in 10.0 mi Calm Calm - N/A   Clear